User: anonymous   Login
Location: Banska Bystrica
(0.0000°N, 19.1500°E)
Time: 20:33:26
(UTC+02:00)
Language:

CZ-2D R/B - Orbit

View from above orbital plane
View from above orbital plane
View from above satellite
View from above satellite

Ground track
Ground track

The orbit data is extracted from the following two-line orbital elements,

1 28738U 05024B   19294.93775919 +.00000221 +00000-0 +16543-4 0  9992
2 28738 097.4057 320.1718 0010505 294.3846 065.6287 15.11887434785210
Epoch (UTC): 21 October 2019 22:30:22
Eccentricity: 0.0010505
inclination: 97.4057°
perigee height: 523 km
apogee height: 538 km
right ascension of ascending node: 320.1718°
argument of perigee: 294.3846°
revolutions per day: 15.11887434
mean anomaly at epoch: 65.6287°
orbit number at epoch: 78521

The dashed part of the orbit path shows where the satellite is in the earth's shadow,  

DLR